Back to catalog

SJ-17

AliveScienceGEO
NORAD 41838·PAYLOAD·🇨🇳 China

Launched Nov 3, 2016 from Wenchang Space Launch Site

Loading…

TLE

FreshSource: Space-Track

Epoch: Sep 13, 2026, 23:47 UTC

1 41838U 16065A   26256.99141889 -.00000278  00000-0  00000+0 0  9999
2 41838   5.9729  71.4902 0001784  70.2533 313.9111  0.99857240 36092

Track SJ-17 in real time with AllMySat

Download on the App Store